Location: Blackwall
(51.5097°N, 0.0016°W)
Time: 02:19:20
(UTC+00:00)

Cosmos 372 Rocket - Pass Details

Date: 15 May 2026
Orbit: 734 x 761 km, 74.1° (Epoch: 8 June)

Event Time Altitude Azimuth Distance (km) Brightness Sun altitude
Rises 21:54:51 0° 337° (NNW) 3,197 9.1 -14.6°
Reaches altitude 10° 21:57:18 10° 342° (NNW) 2,265 7.8 -14.8°
Maximum altitude 22:02:18 52° 59° (ENE) 921 4.4 -15.2°
Enters shadow 22:05:24 22° 128° (SE) 1,581 5.1 -15.4°
